QPF
0.12 0.12 0.14 0.14 0.17 0.20 0.21 0.20 0.19 0.21 0.20 0.16 0.14 0.14 0.12 0.09 0.09 0.06 0.06 0.06 0.06 0.06 0.06 0.06 0.07 0.08 0.08 0.07 0.06 0.05 0.06 0.06 0.06 0.06 0.05 0.03 0.03 0.03
0.08 0.08 0.09 0.09 0.10 0.14 0.17 0.19 0.18 0.16 0.17 0.17 0.15 0.14 0.13 0.11 0.09 0.07 0.06 0.05 0.05 0.04 0.04 0.04 0.04 0.04 0.05 0.05 0.05 0.05 0.05 0.05 0.05 0.06 0.05 0.04 0.04 0.03
0.06 0.08 0.08 0.06 0.06 0.07 0.09 0.13 0.18 0.17 0.17 0.16 0.16 0.15 0.14 0.11 0.08 0.06 0.05 0.04 0.04 0.05 0.04 0.03 0.03 0.03 0.04 0.05 0.05 0.05 0.04 0.04 0.04 0.04 0.05 0.05 0.04 0.03
0.05 0.06 0.07 0.07 0.05 0.05 0.06 0.09 0.14 0.16 0.15 0.14 0.13 0.13 0.11 0.08 0.06 0.04 0.03 0.02 0.03 0.03 0.02 0.02 0.03 0.03 0.03 0.03 0.04 0.04 0.04 0.04 0.04 0.05 0.05 0.05 0.05 0.04
0.04 0.04 0.05 0.07 0.07 0.06 0.05 0.06 0.08 0.10 0.11 0.11 0.12 0.11 0.10 0.08 0.07 0.06 0.04 0.03 0.02 0.02 0.01 0.01 0.01 0.01 0.02 0.02 0.02 0.03 0.03 0.03 0.03 0.03 0.04 0.04 0.05 0.05
0.03 0.03 0.03 0.03 0.04 0.04 0.03 0.04 0.05 0.06 0.07 0.09 0.10 0.10 0.09 0.08 0.08 0.07 0.06 0.04 0.03 0.02 0.01 0.01 0.01 0.01 0.02 0.02 0.02 0.02 0.02 0.02 0.02 0.02 0.02 0.02 0.02 0.03
0.03 0.03 0.02 0.02 0.03 0.03 0.02 0.02 0.03 0.05 0.06 0.07 0.08 0.09 0.07 0.07 0.06 0.04 0.04 0.04 0.03 0.03 0.03 0.02 0.02 0.02 0.02 0.02 0.02 0.02 0.02 0.01 0.01 0.01 0.01 0.02 0.02 0.02
0.02 0.02 0.02 0.02 0.02 0.02 0.02 0.03 0.03 0.04 0.05 0.06 0.07 0.07 0.06 0.05 0.05 0.04 0.03 0.03 0.04 0.03 0.03 0.03 0.02 0.03 0.03 0.03 0.02 0.01 0.01 0.01 0.01 0.01 0.01 0.01 0.02 0.03
0.02 0.03 0.02 0.01 0.02 0.02 0.02 0.02 0.02 0.02 0.03 0.04 0.06 0.06 0.06 0.05 0.04 0.04 0.04 0.04 0.05 0.04 0.03 0.03 0.03 0.03 0.02 0.01 0.01 0.01 0.01 0.01 0.01 0.01 0.01 0.01 0.01 0.01
0.03 0.03 0.02 0.02 0.01 0.01 0.02 0.03 0.02 0.02 0.01 0.02 0.03 0.03 0.03 0.03 0.04 0.04 0.04 0.05 0.06 0.04 0.03 0.04 0.03 0.02 0.01 0.02 0.02 0.01 0.01 0.01 0.01 0.01 0.01 0.01 0.01 0.01
0.03 0.03 0.02 0.01 0.01 0.01 0.02 0.03 0.02 0.02 0.01 0.02 0.02 0.02 0.02 0.02 0.02 0.03 0.05 0.06 0.07 0.06 0.04 0.05 0.04 0.02 0.02 0.02 0.02 0.02 0.01 0.01 0.01 0.01 0.01 0.01 0.01 0.01
0.04 0.04 0.03 0.03 0.02 0.01 0.03 0.04 0.03 0.02 0.02 0.02 0.02 0.01 0.01 0.01 0.01 0.02 0.04 0.05 0.06 0.06 0.04 0.04 0.04 0.03 0.04 0.03 0.02 0.02 0.02 0.02 0.01 0.01 0.01 0.00 0.00 0.00
0.06 0.05 0.03 0.03 0.02 0.01 0.01 0.03 0.01 0.01 0.03 0.04 0.04 0.03 0.03 0.03 0.03 0.02 0.02 0.04 0.05 0.05 0.03 0.03 0.05 0.05 0.05 0.05 0.03 0.02 0.02 0.02 0.01 0.01 0.01 0.00 0.00 0.00
0.06 0.04 0.03 0.02 0.01 0.01 0.01 0.00 0.00 0.01 0.03 0.04 0.04 0.04 0.04 0.04 0.04 0.02 0.02 0.02 0.03 0.04 0.04 0.04 0.05 0.06 0.06 0.06 0.05 0.03 0.03 0.02 0.02 0.02 0.01 0.01 0.00 0.00
0.03 0.02 0.01 0.01 0.01 0.01 0.00 0.00 0.01 0.02 0.04 0.04 0.04 0.04 0.03 0.02 0.02 0.02 0.01 0.02 0.02 0.01 0.01 0.03 0.05 0.06 0.06 0.06 0.06 0.05 0.05 0.04 0.02 0.02 0.02 0.02 0.01 0.01
0.01 0.01 0.01 0.01 0.02 0.02 0.01 0.01 0.02 0.02 0.02 0.02 0.03 0.02 0.01 0.01 0.01 0.02 0.02 0.03 0.03 0.02 0.01 0.02 0.03 0.04 0.05 0.05 0.04 0.03 0.03 0.03 0.01 0.01 0.01 0.01 0.01 0.01
0.01 0.02 0.02 0.02 0.03 0.03 0.03 0.02 0.02 0.02 0.02 0.02 0.03 0.03 0.02 0.01 0.01 0.01 0.01 0.02 0.03 0.03 0.02 0.01 0.02 0.02 0.02 0.02 0.02 0.01 0.01 0.02 0.01 0.01 0.01 0.01 0.01 0.01
0.01 0.02 0.02 0.01 0.01 0.01 0.02 0.01 0.00 0.01 0.01 0.01 0.02 0.02 0.02 0.01 0.01 0.01 0.01 0.02 0.02 0.02 0.01 0.01 0.01 0.02 0.02 0.01 0.01 0.02 0.02 0.02 0.01 0.01 0.01 0.01 0.01 0.01
0.01 0.01 0.01 0.00 0.00 0.00 0.01 0.00 0.00 0.00 0.00 0.01 0.01 0.01 0.01 0.01 0.01 0.01 0.01 0.02 0.03 0.02 0.01 0.00 0.01 0.01 0.02 0.02 0.01 0.00 0.01 0.01 0.01 0.01 0.01 0.01 0.01 0.00
0.00 0.00 0.00 0.00 0.00 0.00 0.00 0.00 0.00 0.00 0.00 0.00 0.01 0.01 0.01 0.01 0.01 0.01 0.02 0.02 0.02 0.02 0.01 0.00 0.00 0.00 0.01 0.02 0.01 0.00 0.00 0.01 0.01 0.02 0.01 0.01 0.00 0.00
0.00 0.00 0.00 0.00 0.00 0.00 0.00 0.00 0.00 0.00 0.01 0.01 0.01 0.01 0.01 0.02 0.01 0.01 0.01 0.01 0.01 0.01 0.01 0.00 0.00 0.00 0.00 0.00 0.01 0.00 0.00 0.00 0.00 0.00 0.00 0.00 0.00 0.00
0.00 0.00 0.00 0.00 0.00 0.00 0.00 0.00 0.00 0.00 0.00 0.00 0.00 0.00 0.00 0.00 0.01 0.01 0.01 0.01 0.02 0.02 0.00 0.00 0.00 0.00 0.00 0.00 0.01 0.00 0.00 0.00 0.00 0.00 0.00 0.00 0.00 0.00
0.00 0.00 0.00 0.00 0.00 0.00 0.00 0.00 0.00 0.00 0.00 0.00 0.00 0.00 0.00 0.00 0.00 0.00 0.00 0.01 0.00 0.00 0.00 0.00 0.00 0.00 0.00 0.00 0.00 0.00 0.00 0.00 0.00 0.00 0.00 0.00 0.00 0.00
MSLP
1018.53 1019.12 1019.79 1020.53 1021.28 1022.02 1022.71 1023.34 1023.89 1024.38 1024.81 1025.20 1025.57 1025.92 1026.27 1026.61 1026.94 1027.25 1027.54 1027.80 1028.04 1028.24 1028.43 1028.59 1028.74 1028.87 1028.99 1029.09 1029.17 1029.22 1029.23 1029.21 1029.15 1029.07 1028.96 1028.84 1028.70 1028.57
1018.76 1019.26 1019.83 1020.45 1021.10 1021.74 1022.35 1022.91 1023.42 1023.89 1024.31 1024.71 1025.10 1025.47 1025.83 1026.19 1026.54 1026.87 1027.17 1027.45 1027.70 1027.92 1028.13 1028.34 1028.53 1028.72 1028.90 1029.05 1029.18 1029.27 1029.31 1029.30 1029.23 1029.13 1028.98 1028.81 1028.64 1028.46
1019.09 1019.49 1019.95 1020.46 1020.98 1021.50 1022.00 1022.48 1022.93 1023.35 1023.75 1024.14 1024.52 1024.90 1025.28 1025.65 1026.00 1026.34 1026.65 1026.93 1027.19 1027.43 1027.66 1027.89 1028.13 1028.36 1028.59 1028.80 1028.98 1029.11 1029.18 1029.18 1029.11 1028.99 1028.81 1028.61 1028.39 1028.18
1019.48 1019.79 1020.15 1020.53 1020.93 1021.33 1021.73 1022.12 1022.50 1022.87 1023.24 1023.61 1023.98 1024.36 1024.74 1025.12 1025.47 1025.81 1026.11 1026.39 1026.64 1026.87 1027.11 1027.35 1027.60 1027.86 1028.12 1028.37 1028.58 1028.74 1028.84 1028.86 1028.79 1028.65 1028.46 1028.23 1027.99 1027.75
1019.90 1020.13 1020.39 1020.67 1020.96 1021.27 1021.58 1021.90 1022.21 1022.54 1022.88 1023.23 1023.60 1023.98 1024.35 1024.72 1025.07 1025.39 1025.68 1025.93 1026.16 1026.37 1026.57 1026.79 1027.02 1027.27 1027.53 1027.79 1028.02 1028.20 1028.31 1028.34 1028.29 1028.15 1027.95 1027.72 1027.47 1027.23
1020.33 1020.49 1020.67 1020.87 1021.09 1021.33 1021.58 1021.85 1022.13 1022.43 1022.75 1023.09 1023.45 1023.82 1024.20 1024.56 1024.90 1025.20 1025.45 1025.66 1025.84 1025.99 1026.14 1026.29 1026.47 1026.67 1026.90 1027.13 1027.34 1027.52 1027.64 1027.68 1027.63 1027.51 1027.33 1027.11 1026.87 1026.65
1020.72 1020.84 1020.98 1021.14 1021.32 1021.52 1021.75 1021.99 1022.26 1022.55 1022.86 1023.20 1023.56 1023.93 1024.30 1024.65 1024.96 1025.23 1025.44 1025.60 1025.70 1025.78 1025.84 1025.91 1026.00 1026.12 1026.27 1026.44 1026.61 1026.76 1026.87 1026.91 1026.89 1026.79 1026.63 1026.44 1026.24 1026.05
1021.08 1021.18 1021.30 1021.45 1021.63 1021.83 1022.06 1022.31 1022.58 1022.87 1023.18 1023.52 1023.87 1024.24 1024.60 1024.93 1025.22 1025.45 1025.61 1025.70 1025.73 1025.72 1025.68 1025.64 1025.62 1025.63 1025.69 1025.78 1025.89 1025.99 1026.07 1026.11 1026.09 1026.02 1025.89 1025.74 1025.58 1025.43
1021.39 1021.50 1021.63 1021.80 1022.00 1022.23 1022.48 1022.74 1023.02 1023.32 1023.63 1023.96 1024.30 1024.65 1024.99 1025.29 1025.55 1025.74 1025.86 1025.89 1025.84 1025.74 1025.60 1025.46 1025.33 1025.24 1025.19 1025.19 1025.22 1025.26 1025.30 1025.32 1025.30 1025.24 1025.14 1025.02 1024.90 1024.80
1021.70 1021.82 1021.98 1022.19 1022.42 1022.68 1022.95 1023.23 1023.51 1023.80 1024.10 1024.41 1024.72 1025.04 1025.34 1025.62 1025.84 1025.99 1026.07 1026.05 1025.95 1025.78 1025.56 1025.33 1025.11 1024.92 1024.77 1024.68 1024.63 1024.61 1024.60 1024.58 1024.55 1024.48 1024.40 1024.30 1024.21 1024.14
1022.02 1022.17 1022.37 1022.61 1022.87 1023.16 1023.44 1023.72 1023.99 1024.25 1024.51 1024.77 1025.03 1025.30 1025.56 1025.79 1025.98 1026.11 1026.15 1026.10 1025.97 1025.76 1025.50 1025.21 1024.93 1024.66 1024.44 1024.27 1024.15 1024.06 1023.99 1023.93 1023.85 1023.77 1023.67 1023.58 1023.49 1023.43
1022.40 1022.57 1022.79 1023.06 1023.34 1023.63 1023.90 1024.15 1024.38 1024.59 1024.79 1024.98 1025.18 1025.39 1025.59 1025.78 1025.93 1026.03 1026.06 1026.01 1025.87 1025.66 1025.38 1025.07 1024.76 1024.45 1024.18 1023.95 1023.76 1023.61 1023.48 1023.36 1023.24 1023.11 1022.98 1022.86 1022.76 1022.69
1022.83 1023.01 1023.25 1023.51 1023.79 1024.06 1024.30 1024.50 1024.67 1024.81 1024.92 1025.04 1025.16 1025.29 1025.44 1025.58 1025.70 1025.79 1025.82 1025.77 1025.65 1025.45 1025.19 1024.90 1024.58 1024.27 1023.97 1023.70 1023.46 1023.25 1023.06 1022.87 1022.69 1022.51 1022.33 1022.16 1022.03 1021.94
1023.31 1023.48 1023.71 1023.95 1024.20 1024.42 1024.61 1024.74 1024.84 1024.89 1024.93 1024.96 1025.00 1025.07 1025.15 1025.26 1025.35 1025.43 1025.46 1025.43 1025.34 1025.17 1024.95 1024.68 1024.38 1024.07 1023.77 1023.48 1023.21 1022.95 1022.70 1022.45 1022.20 1021.95 1021.72 1021.51 1021.33 1021.20
1023.78 1023.92 1024.11 1024.31 1024.51 1024.67 1024.79 1024.86 1024.88 1024.86 1024.82 1024.78 1024.76 1024.77 1024.81 1024.88 1024.95 1025.02 1025.06 1025.05 1024.98 1024.84 1024.65 1024.42 1024.15 1023.85 1023.55 1023.25 1022.95 1022.66 1022.36 1022.06 1021.75 1021.45 1021.17 1020.91 1020.69 1020.54
1024.17 1024.27 1024.40 1024.54 1024.68 1024.78 1024.83 1024.84 1024.79 1024.72 1024.64 1024.55 1024.50 1024.47 1024.48 1024.52 1024.58 1024.63 1024.67 1024.66 1024.60 1024.49 1024.32 1024.11 1023.85 1023.57 1023.28 1022.97 1022.66 1022.34 1022.01 1021.67 1021.33 1020.99 1020.67 1020.39 1020.15 1019.97
1024.40 1024.44 1024.51 1024.58 1024.65 1024.69 1024.70 1024.66 1024.59 1024.50 1024.40 1024.30 1024.23 1024.20 1024.20 1024.22 1024.27 1024.30 1024.32 1024.30 1024.24 1024.12 1023.95 1023.74 1023.49 1023.21 1022.92 1022.61 1022.29 1021.96 1021.62 1021.27 1020.92 1020.57 1020.24 1019.95 1019.70 1019.52
1024.43 1024.40 1024.40 1024.41 1024.42 1024.42 1024.39 1024.34 1024.28 1024.20 1024.12 1024.05 1024.00 1023.98 1023.98 1024.00 1024.03 1024.04 1024.03 1023.98 1023.88 1023.73 1023.54 1023.31 1023.05 1022.77 1022.47 1022.16 1021.85 1021.52 1021.18 1020.84 1020.50 1020.16 1019.85 1019.57 1019.34 1019.18
1024.25 1024.15 1024.08 1024.03 1024.00 1023.98 1023.95 1023.92 1023.88 1023.85 1023.82 1023.80 1023.79 1023.80 1023.82 1023.83 1023.84 1023.82 1023.76 1023.66 1023.51 1023.32 1023.09 1022.83 1022.55 1022.25 1021.95 1021.64 1021.33 1021.02 1020.71 1020.39 1020.07 1019.77 1019.49 1019.24 1019.03 1018.88
1023.90 1023.73 1023.61 1023.52 1023.47 1023.44 1023.43 1023.43 1023.45 1023.48 1023.52 1023.56 1023.60 1023.65 1023.68 1023.69 1023.67 1023.61 1023.50 1023.34 1023.14 1022.90 1022.62 1022.32 1022.02 1021.70 1021.39 1021.09 1020.79 1020.50 1020.21 1019.92 1019.64 1019.37 1019.12 1018.90 1018.72 1018.58
1023.43 1023.23 1023.07 1022.96 1022.89 1022.88 1022.91 1022.96 1023.04 1023.14 1023.24 1023.34 1023.44 1023.51 1023.54 1023.54 1023.49 1023.39 1023.23 1023.02 1022.76 1022.47 1022.15 1021.82 1021.49 1021.16 1020.85 1020.55 1020.27 1019.99 1019.72 1019.46 1019.20 1018.95 1018.73 1018.52 1018.35 1018.21
1022.95 1022.72 1022.54 1022.43 1022.38 1022.39 1022.46 1022.56 1022.70 1022.86 1023.02 1023.17 1023.29 1023.37 1023.41 1023.39 1023.30 1023.16 1022.95 1022.70 1022.40 1022.07 1021.72 1021.37 1021.02 1020.69 1020.38 1020.08 1019.80 1019.53 1019.26 1019.01 1018.75 1018.51 1018.28 1018.07 1017.88 1017.71
1022.50 1022.27 1022.10 1022.00 1021.98 1022.03 1022.13 1022.29 1022.47 1022.67 1022.87 1023.04 1023.17 1023.25 1023.27 1023.22 1023.10 1022.92 1022.67 1022.38 1022.06 1021.71 1021.35 1020.99 1020.65 1020.32 1020.00 1019.70 1019.41 1019.13 1018.85 1018.58 1018.30 1018.03 1017.77 1017.52 1017.29 1017.08
Thickness
5619 5619 5620 5621 5622 5621 5620 5619 5617 5612 5607 5604 5602 5600 5599 5597 5594 5594 5592 5589 5587 5585 5583 5581 5579 5577 5575 5573 5572 5570 5568 5566 5564 5562 5560 5558 5556 5553
5607 5608 5609 5611 5611 5611 5611 5610 5610 5609 5604 5599 5595 5592 5588 5588 5585 5584 5583 5580 5578 5576 5573 5571 5569 5567 5565 5563 5561 5559 5557 5556 5554 5552 5550 5548 5546 5543
5597 5597 5598 5599 5600 5600 5601 5601 5601 5600 5596 5591 5587 5583 5580 5578 5576 5575 5574 5573 5571 5567 5565 5562 5560 5558 5556 5555 5552 5550 5548 5546 5545 5543 5540 5539 5536 5534
5586 5587 5587 5588 5588 5590 5590 5590 5590 5589 5587 5582 5578 5574 5571 5569 5567 5566 5566 5566 5564 5559 5557 5554 5551 5549 5548 5546 5544 5542 5540 5538 5536 5534 5532 5530 5528 5526
5576 5577 5577 5578 5578 5578 5579 5579 5579 5578 5576 5573 5569 5565 5563 5561 5559 5559 5558 5556 5557 5552 5549 5546 5544 5542 5540 5538 5536 5534 5532 5531 5529 5527 5525 5523 5521 5519
5566 5566 5567 5567 5567 5567 5567 5567 5567 5567 5565 5564 5560 5558 5555 5553 5552 5552 5552 5550 5549 5547 5544 5541 5538 5535 5534 5532 5530 5528 5526 5524 5522 5521 5519 5517 5515 5513
5556 5556 5555 5555 5554 5555 5557 5556 5557 5557 5557 5555 5553 5551 5549 5546 5546 5545 5545 5543 5541 5540 5539 5538 5535 5533 5530 5528 5525 5523 5521 5519 5517 5515 5514 5512 5510 5508
5546 5547 5547 5547 5545 5544 5544 5544 5545 5547 5548 5547 5547 5544 5540 5539 5537 5537 5536 5536 5535 5534 5534 5534 5533 5531 5528 5527 5523 5519 5517 5515 5513 5511 5510 5508 5506 5504
5538 5539 5541 5539 5539 5539 5536 5535 5535 5534 5534 5537 5537 5535 5532 5531 5529 5529 5527 5527 5527 5528 5528 5529 5528 5526 5525 5523 5519 5516 5513 5512 5510 5509 5507 5505 5503 5501
5529 5530 5531 5530 5530 5529 5532 5531 5530 5528 5527 5528 5527 5525 5524 5522 5521 5521 5520 5520 5521 5522 5522 5523 5523 5522 5522 5520 5515 5513 5511 5509 5508 5506 5504 5503 5501 5499
5521 5521 5522 5522 5518 5520 5524 5525 5524 5521 5518 5517 5516 5515 5513 5512 5512 5516 5517 5518 5518 5519 5518 5518 5519 5518 5519 5517 5514 5511 5509 5508 5506 5504 5502 5501 5499 5498
5514 5514 5511 5511 5510 5512 5517 5519 5518 5517 5516 5514 5511 5510 5510 5509 5508 5509 5513 5515 5515 5515 5514 5513 5515 5515 5514 5515 5514 5512 5509 5507 5506 5504 5502 5500 5498 5497
5511 5510 5507 5504 5505 5506 5509 5511 5509 5509 5512 5512 5512 5512 5511 5509 5508 5508 5509 5510 5511 5512 5512 5511 5512 5512 5512 5512 5513 5513 5512 5510 5507 5506 5502 5500 5498 5496
5505 5505 5502 5499 5501 5502 5504 5502 5503 5505 5510 5511 5510 5510 5509 5509 5508 5507 5506 5506 5505 5506 5506 5506 5508 5508 5509 5509 5511 5513 5512 5511 5510 5508 5506 5502 5499 5497
5499 5495 5496 5497 5498 5500 5499 5500 5502 5506 5508 5508 5507 5507 5508 5507 5506 5505 5505 5505 5505 5506 5506 5504 5505 5506 5507 5508 5510 5511 5511 5511 5510 5508 5506 5505 5503 5501
5497 5495 5495 5496 5498 5498 5499 5502 5504 5504 5505 5505 5506 5506 5506 5506 5506 5506 5506 5507 5507 5508 5507 5506 5504 5504 5506 5508 5510 5510 5511 5510 5510 5508 5507 5506 5505 5504
5495 5499 5501 5502 5503 5503 5504 5504 5503 5504 5504 5504 5504 5504 5505 5506 5506 5506 5505 5506 5506 5507 5508 5508 5507 5506 5506 5507 5508 5509 5510 5510 5509 5508 5505 5506 5507 5506
5495 5502 5503 5504 5505 5505 5505 5505 5505 5504 5504 5504 5504 5504 5504 5505 5505 5505 5506 5506 5506 5506 5507 5508 5508 5508 5509 5511 5507 5508 5508 5508 5508 5507 5506 5506 5506 5506
5499 5503 5504 5504 5505 5505 5505 5505 5505 5504 5503 5503 5504 5504 5504 5504 5504 5504 5504 5504 5505 5505 5506 5507 5507 5507 5507 5507 5508 5504 5505 5506 5505 5506 5506 5506 5505 5505
5504 5505 5505 5505 5505 5505 5505 5505 5505 5504 5504 5504 5503 5503 5503 5504 5504 5504 5504 5504 5504 5504 5506 5507 5507 5507 5505 5504 5505 5506 5504 5505 5504 5503 5504 5504 5505 5503
5508 5508 5507 5507 5507 5506 5505 5505 5505 5505 5504 5504 5504 5503 5504 5504 5504 5504 5505 5503 5501 5504 5505 5506 5507 5502 5503 5504 5505 5507 5507 5504 5502 5501 5501 5502 5503 5503
5511 5511 5510 5509 5508 5508 5508 5508 5508 5507 5507 5506 5506 5506 5505 5505 5505 5505 5505 5505 5505 5506 5507 5507 5507 5506 5506 5506 5506 5507 5507 5506 5503 5500 5499 5498 5498 5498
5514 5513 5513 5513 5512 5512 5512 5512 5511 5511 5510 5509 5509 5508 5507 5507 5506 5506 5506 5506 5507 5507 5507 5507 5508 5508 5508 5508 5507 5507 5507 5506 5507 5505 5503 5500 5496 5494